User: anonymous   Login
Location: Unspecified
(0.0000°N, 0.0000°E)
Time: 19:19:36
(UTC+00:00)
Language:

NADEZHDA 7 - Orbit

View from above orbital plane
View from above orbital plane
View from above satellite
View from above satellite

Ground track
Ground track

The orbit data is extracted from the following two-line orbital elements,

1 27534U 02046A   23273.46013208  .00000095  00000-0  86654-4 0  9991
2 27534  82.9387 342.8339 0035758 204.1770 166.4366 13.72807573 52722
Epoch (UTC): 30 September 2023 11:02:35
Eccentricity: 0.0035758
inclination: 82.9387°
perigee height: 963 km
apogee height: 1016 km
right ascension of ascending node: 342.8339°
argument of perigee: 204.1770°
revolutions per day: 13.72807573
mean anomaly at epoch: 166.4366°
orbit number at epoch: 5272

The dashed part of the orbit path shows where the satellite is in the earth's shadow,  

DLR